Regional Weather Roundup
Issued by NWS

Home | Current Version | Previous Version | Text Only | Print | Product List | Glossary On
Versions: 1 2 3 4 5 6 7 8 9 10 11 12 13 14 15 16 17 18 19 20 21 22 23 24 25 26 27 28 29 30 31 32 33 34 35 36 37 38 39 40 41 42 43 44 45 46 47 48 49 50
000
ASUS43 KLSX 111810
RWRMO

WEATHER SUMMARY FOR MISSOURI
NATIONAL WEATHER SERVICE SPRINGFIELD MO
1200 PM CST THU FEB 11 2016

NOTE: "FAIR" INDICATES FEW OR NO CLOUDS BELOW 12,000 FEET WITH NO
       SIGNIFICANT WEATHER AND/OR OBSTRUCTIONS TO VISIBILITY.
       CURRENT SKY AND/OR WEATHER CONDITIONS ARE NOT AVAILABLE FOR
       CHILLICOTHE AND FARMINGTON.

MOZ001>031-035>038-043-044-053-054-111900-
...NORTHERN AND WESTERN MISSOURI...

CITY           SKY/WX    TMP DP  RH WIND       PRES   REMARKS
KANSAS CTY INT PTSUNNY   30  20  66 E8        30.28F WCI  22
6HR MIN TEMP:  18; 6HR MAX TEMP:  31;

KANSAS C DTWN  MOSUNNY   33  19  56 E9        30.29F WCI  25
6HR MIN TEMP:  22; 6HR MAX TEMP:  34;

LEE`S SUMMIT   SUNNY     32  21  64 E9        30.27F WCI  24
6HR MIN TEMP:  21; 6HR MAX TEMP:  32;

ST JOSEPH      SUNNY     30  17  58 SE7       30.31F WCI  23
6HR MIN TEMP:  20; 6HR MAX TEMP:  30;

CHILLICOTHE      N/A     28  11  48 E7        30.34S WCI  21
6HR MIN TEMP:  20; 6HR MAX TEMP:  29;

KIRKSVILLE     SUNNY     20   3  48 E3        30.34R
6HR MIN TEMP:  12; 6HR MAX TEMP:  21;


$$
MOZ066>068-077>081-088>096-101>105-111900-
...SOUTHWEST MISSOURI...

CITY           SKY/WX    TMP DP  RH WIND       PRES   REMARKS
SPRINGFIELD    SUNNY     41  16  36 NE7       30.21S
6HR MIN TEMP:  24; 6HR MAX TEMP:  41;

JOPLIN         SUNNY     41  21  44 NE12G18   30.23F
6HR MIN TEMP:  25; 6HR MAX TEMP:  41;


$$
MOZ032>034-039>042-045>050-055>058-069>072-111900-
...CENTRAL MISSOURI...

CITY           SKY/WX    TMP DP  RH WIND       PRES   REMARKS
COLUMBIA       SUNNY     29  17  61 E8        30.28F WCI  21
6HR MIN TEMP:  21; 6HR MAX TEMP:  29;

JEFFERSON CITY SUNNY     31  18  58 E6        30.30F WCI  25
6HR MIN TEMP:  23; 6HR MAX TEMP:  31;

ROLLA          SUNNY     32  21  64 N9        30.26S WCI  24
6HR MIN TEMP:  20; 6HR MAX TEMP:  32;

SEDALIA        SUNNY     34  18  52 E9        30.29F WCI  27
6HR MIN TEMP:  21; 6HR MAX TEMP:  34;

WHITEMAN AFB   MOSUNNY   34  20  56 E8        30.27F WCI  27
WARRENSBURG    SUNNY     34  21  60 E3        30.28F
OSAGE BEACH    SUNNY     36  18  48 E9        30.27F WCI  29

$$
MOZ051-052-059>065-111900-
...EAST CENTRAL MISSOURI...

CITY           SKY/WX    TMP DP  RH WIND       PRES   REMARKS
ST LOUIS INTL  MOSUNNY   26  12  55 CALM      30.34F
6HR MIN TEMP:  23; 6HR MAX TEMP:  27;

SPIRIT OF STL  MOSUNNY   27  17  66 NE5       30.34F WCI  22
6HR MIN TEMP:  22; 6HR MAX TEMP:  27;

ST CHARLES     PTSUNNY   26   8  46 NE6       30.34F WCI  19
6HR MIN TEMP:  21; 6HR MAX TEMP:  26;


$$
MOZ072>076-082>087-097>100-106>115-111900-
...SOUTH CENTRAL AND SOUTHEAST MISSOURI...

CITY           SKY/WX    TMP DP  RH WIND       PRES   REMARKS
CAPE GIRARDEAU SUNNY     34  22  61 NE13G21   30.30F WCI  25
6HR MIN TEMP:  25; 6HR MAX TEMP:  34;

FARMINGTON     SUNNY     32  20  61 N6        30.29S WCI  26
POPLAR BLUFF   SUNNY     37  22  54 NE12      30.27F WCI  29
6HR MIN TEMP:  24; 6HR MAX TEMP:  37;

WEST PLAINS    SUNNY     40  16  37 VRB5      30.22F
6HR MIN TEMP:  20; 6HR MAX TEMP:  40;


$$




USA.gov is the U.S. government's official web portal to all federal, state and local government web resources and services.